sat.trackr.live / text

‹ back to catalog

STARLINK-4386

NORAD 53649 · 2022-105B

PAYLOAD ACTIVE UNKNOWN

§ Identity

Operator
Country
US
Launch date
2022-08-31
Launch site
AFWTR
Launch vehicle
Mass (kg)
RCS (m²)

Purposes: comms

External: N2YO · Heavens-Above · Gunter

§ Orbital elements

Epoch: 2026-09-20T21:34:01.362432Z

Period
89.57 min
Inclination
97.5799°
Eccentricity
0.0002936
Mean motion
16.07688968 rev/d
Perigee alt
251.2 km
Apogee alt
255.1 km
Semi-major
6,631.3 km
B*
4.9359e-4
RAAN
156.4648°
Arg perigee
161.7482°
Mean anomaly
198.3905°
Rev number
22,349

§ Raw data

STARLINK-43861 53649U 22105B   26263.89862688  .00394716  76714-4  49359-3 0  99932 53649  97.5799 156.4648 0002936 161.7482 198.3905 16.07688968223492

JSON: /api/v1/satellites/53649 · /tle

For live sub-satellite position, see the globe view (requires WebGL).

§ Visibility from observer

Set your observer location to see the next 7 days of passes ≥ 10°. The values pass through the URL so the page stays shareable.

No JS? Fill the form by hand. The geolocation button needs JavaScript.